When you browse on this site, cookies collect data to enhance your experience and personalize the content and advertising you see.
Visit our Privacy Policy to learn more. By continuing to use the site, you agree to this use of cookies and data.
  • In Österreich
  • Länderverzeichnis
  • Für 7 Tage
  • Wassertemperatur
  • Satellitenkarten
  • Wetterkarte
  • News
  • Widgets
  • user-avatar
    Anmelden

    Stündliche Wetter Concord

    Heute, 24 Juni, Montag

    Zeit Temperatur Niederschläge Wind Luftdruck Luftfeuchtigkeit
    00:00 +23°C° 0 mm 1 m/S 743 mmHg 87%
    01:00 +22°C° 0 mm 1 m/S 743 mmHg 87%
    02:00 +22°C° 0 mm 1 m/S 743 mmHg 89%
    03:00 +22°C° 0 mm 1 m/S 742 mmHg 90%
    04:00 +22°C° 0 mm 1 m/S 742 mmHg 92%
    05:00 +23°C° 0 mm 2 m/S 742 mmHg 89%
    06:00 +23°C° 0 mm 2 m/S 742 mmHg 87%
    07:00 +25°C° 0 mm 1 m/S 743 mmHg 86%
    08:00 +27°C° 0 mm 2 m/S 743 mmHg 79%
    09:00 +29°C° 0 mm 2 m/S 742 mmHg 72%
    10:00 +31°C° 0 mm 3 m/S 742 mmHg 65%
    11:00 +33°C° 0 mm 3 m/S 742 mmHg 60%
    12:00 +34°C° 0 mm 4 m/S 742 mmHg 54%
    13:00 +36°C° 0 mm 4 m/S 742 mmHg 49%
    14:00 +36°C° 0 mm 4 m/S 741 mmHg 48%
    15:00 +36°C° 0 mm 4 m/S 740 mmHg 48%
    16:00 +36°C° 0 mm 4 m/S 739 mmHg 47%
    17:00 +35°C° 0 mm 4 m/S 739 mmHg 51%
    18:00 +33°C° 0 mm 4 m/S 740 mmHg 55%
    19:00 +32°C° 0 mm 4 m/S 740 mmHg 59%
    20:00 +29°C° 0.2 mm 4 m/S 740 mmHg 61%
    21:00 +28°C° 0.2 mm 4 m/S 740 mmHg 62%
    22:00 +26°C° 0.2 mm 4 m/S 741 mmHg 63%
    23:00 +25°C° 0 mm 3 m/S 741 mmHg 70%

    Morgen, 25 Juni, Dienstag

    Zeit Temperatur Niederschläge Wind Luftdruck Luftfeuchtigkeit
    00:00 +25°C° 0 mm 3 m/S 741 mmHg 77%
    01:00 +24°C° 0 mm 2 m/S 741 mmHg 84%
    02:00 +24°C° 0 mm 2 m/S 741 mmHg 85%
    03:00 +23°C° 0 mm 2 m/S 740 mmHg 86%
    04:00 +23°C° 0 mm 1 m/S 740 mmHg 86%
    05:00 +24°C° 0 mm 1 m/S 741 mmHg 84%
    06:00 +24°C° 0 mm 1 m/S 742 mmHg 81%
    07:00 +25°C° 0 mm 1 m/S 742 mmHg 79%
    08:00 +27°C° 0 mm 1 m/S 742 mmHg 71%
    09:00 +28°C° 0 mm 1 m/S 743 mmHg 63%
    10:00 +30°C° 0 mm 2 m/S 743 mmHg 56%
    11:00 +31°C° 0 mm 2 m/S 743 mmHg 53%
    12:00 +32°C° 0 mm 2 m/S 743 mmHg 50%
    13:00 +32°C° 0 mm 2 m/S 743 mmHg 47%
    14:00 +32°C° 0 mm 2 m/S 743 mmHg 47%
    15:00 +32°C° 0 mm 1 m/S 742 mmHg 48%
    16:00 +32°C° 0 mm 1 m/S 742 mmHg 48%
    17:00 +31°C° 0 mm 1 m/S 743 mmHg 53%
    18:00 +30°C° 0 mm 1 m/S 743 mmHg 57%
    19:00 +29°C° 0 mm 1 m/S 743 mmHg 62%
    20:00 +27°C° 0 mm 1 m/S 744 mmHg 62%
    21:00 +26°C° 0 mm 1 m/S 744 mmHg 63%
    22:00 +25°C° 0 mm 2 m/S 744 mmHg 63%
    23:00 +24°C° 0 mm 2 m/S 744 mmHg 64%

    übermorgen, 26 Juni, Mittwoch

    Zeit Temperatur Niederschläge Wind Luftdruck Luftfeuchtigkeit
    00:00 +24°C° 0 mm 2 m/S 745 mmHg 65%
    01:00 +23°C° 0 mm 2 m/S 745 mmHg 66%
    02:00 +21°C° 0 mm 2 m/S 745 mmHg 67%
    03:00 +21°C° 0 mm 3 m/S 745 mmHg 68%
    04:00 +20°C° 0 mm 3 m/S 745 mmHg 69%
    05:00 +21°C° 0 mm 3 m/S 746 mmHg 70%
    06:00 +21°C° 0 mm 3 m/S 746 mmHg 71%
    07:00 +22°C° 0 mm 3 m/S 747 mmHg 72%
    08:00 +25°C° 0 mm 3 m/S 747 mmHg 66%
    09:00 +27°C° 0 mm 3 m/S 747 mmHg 59%
    10:00 +29°C° 0 mm 2 m/S 747 mmHg 53%
    11:00 +30°C° 0 mm 2 m/S 747 mmHg 48%
    12:00 +31°C° 0 mm 2 m/S 747 mmHg 43%
    13:00 +32°C° 0 mm 2 m/S 747 mmHg 38%
    14:00 +32°C° 0 mm 2 m/S 746 mmHg 39%
    15:00 +32°C° 0 mm 2 m/S 746 mmHg 39%
    16:00 +33°C° 0 mm 1 m/S 746 mmHg 40%
    17:00 +31°C° 0 mm 1 m/S 746 mmHg 45%
    18:00 +30°C° 0 mm 1 m/S 746 mmHg 51%
    19:00 +28°C° 0 mm 1 m/S 746 mmHg 57%
    20:00 +25°C° 0 mm 0 m/S 746 mmHg 58%
    21:00 +24°C° 0 mm 0 m/S 747 mmHg 59%
    22:00 +23°C° 0 mm 0 m/S 747 mmHg 60%
    23:00 +22°C° 0 mm 0 m/S 747 mmHg 61%

    27 Juni, Donnerstag

    Zeit Temperatur Niederschläge Wind Luftdruck Luftfeuchtigkeit
    00:00 +22°C° 0 mm 0 m/S 747 mmHg 62%
    01:00 +22°C° 0 mm 0 m/S 747 mmHg 62%
    02:00 +23°C° 0 mm 1 m/S 747 mmHg 63%
    03:00 +23°C° 0 mm 1 m/S 747 mmHg 64%
    04:00 +23°C° 0 mm 1 m/S 747 mmHg 65%
    05:00 +24°C° 0 mm 1 m/S 747 mmHg 67%
    06:00 +24°C° 0 mm 1 m/S 748 mmHg 68%
    07:00 +25°C° 0 mm 1 m/S 748 mmHg 69%
    08:00 +27°C° 0 mm 1 m/S 748 mmHg 62%
    09:00 +30°C° 0 mm 1 m/S 748 mmHg 56%
    10:00 +32°C° 0 mm 1 m/S 749 mmHg 49%
    11:00 +33°C° 0 mm 1 m/S 749 mmHg 46%
    12:00 +34°C° 0 mm 1 m/S 748 mmHg 42%
    13:00 +35°C° 0 mm 1 m/S 748 mmHg 39%
    14:00 +35°C° 0 mm 1 m/S 748 mmHg 39%
    15:00 +35°C° 0 mm 1 m/S 747 mmHg 39%
    16:00 +35°C° 0 mm 1 m/S 747 mmHg 39%
    17:00 +34°C° 0 mm 1 m/S 747 mmHg 44%
    18:00 +32°C° 0 mm 1 m/S 747 mmHg 50%
    19:00 +29°C° 0 mm 0 m/S 748 mmHg 55%
    20:00 +29°C° 0.1 mm 1 m/S 748 mmHg 58%
    21:00 +28°C° 0.1 mm 1 m/S 748 mmHg 61%
    22:00 +27°C° 0.1 mm 1 m/S 748 mmHg 64%
    23:00 +26°C° 0 mm 1 m/S 748 mmHg 66%

    28 Juni, Freitag

    Zeit Temperatur Niederschläge Wind Luftdruck Luftfeuchtigkeit
    00:00 +26°C° 0 mm 1 m/S 748 mmHg 68%
    01:00 +25°C° 0 mm 1 m/S 748 mmHg 71%
    02:00 +25°C° 0 mm 1 m/S 748 mmHg 72%
    03:00 +24°C° 0 mm 1 m/S 748 mmHg 73%
    04:00 +22°C° 0 mm 0 m/S 748 mmHg 74%
    05:00 +23°C° 0 mm 0 m/S 748 mmHg 73%
    06:00 +23°C° 0 mm 0 m/S 749 mmHg 72%
    07:00 +24°C° 0 mm 0 m/S 749 mmHg 71%
    08:00 +26°C° 0 mm 0 m/S 749 mmHg 64%
    09:00 +29°C° 0 mm 0 m/S 749 mmHg 58%
    10:00 +31°C° 0 mm 0 m/S 750 mmHg 51%
    11:00 +34°C° 0 mm 1 m/S 749 mmHg 47%
    12:00 +35°C° 0 mm 1 m/S 749 mmHg 44%
    13:00 +36°C° 0 mm 2 m/S 749 mmHg 41%
    14:00 +36°C° 0 mm 2 m/S 748 mmHg 41%
    15:00 +36°C° 0 mm 2 m/S 748 mmHg 42%
    16:00 +36°C° 0 mm 2 m/S 747 mmHg 42%
    17:00 +34°C° 0 mm 2 m/S 748 mmHg 47%
    18:00 +32°C° 0 mm 1 m/S 748 mmHg 52%
    19:00 +30°C° 0 mm 1 m/S 748 mmHg 58%
    20:00 +29°C° 0.1 mm 1 m/S 748 mmHg 62%
    21:00 +27°C° 0.1 mm 1 m/S 748 mmHg 67%
    22:00 +26°C° 0.1 mm 1 m/S 749 mmHg 72%
    23:00 +25°C° 0.1 mm 1 m/S 748 mmHg 73%

    29 Juni, Samstag

    Zeit Temperatur Niederschläge Wind Luftdruck Luftfeuchtigkeit
    00:00 +25°C° 0.1 mm 1 m/S 748 mmHg 75%
    01:00 +22°C° 0.1 mm 0 m/S 748 mmHg 77%
    02:00 +24°C° 0 mm 1 m/S 748 mmHg 77%
    03:00 +23°C° 0 mm 1 m/S 748 mmHg 77%
    04:00 +23°C° 0 mm 1 m/S 748 mmHg 77%
    05:00 +24°C° 0 mm 1 m/S 748 mmHg 76%
    06:00 +25°C° 0 mm 1 m/S 748 mmHg 75%
    07:00 +25°C° 0 mm 1 m/S 748 mmHg 75%
    08:00 +28°C° 0 mm 1 m/S 748 mmHg 67%
    09:00 +30°C° 0 mm 1 m/S 748 mmHg 59%
    10:00 +32°C° 0 mm 1 m/S 748 mmHg 51%
    11:00 +34°C° 0 mm 1 m/S 748 mmHg 47%
    12:00 +35°C° 0 mm 1 m/S 747 mmHg 42%
    13:00 +36°C° 0 mm 1 m/S 747 mmHg 38%
    14:00 +36°C° 0 mm 1 m/S 747 mmHg 39%
    15:00 +35°C° 0 mm 1 m/S 746 mmHg 41%
    16:00 +36°C° 0 mm 2 m/S 746 mmHg 42%
    17:00 +34°C° 0 mm 2 m/S 745 mmHg 49%
    18:00 +31°C° 0 mm 2 m/S 745 mmHg 56%
    19:00 +29°C° 0 mm 2 m/S 745 mmHg 62%
    20:00 +28°C° 0 mm 2 m/S 745 mmHg 62%
    21:00 +28°C° 0 mm 1 m/S 746 mmHg 62%
    22:00 +27°C° 0 mm 1 m/S 746 mmHg 62%
    23:00 +27°C° 0 mm 1 m/S 746 mmHg 63%
    Mehr zeigen